| time (UTC) | temp C | wind direction | speed KPH | gust KPH | rain 1hr cm | rain 24hr cm | rain mn cm | humidity % | barometer mb |
| 20260905182357 | 17 | 252 | 1.6 | 4.8 | 0.00 | 0.15 | 0.15 | 61 | 1017.5 |
| 20260905181507 | 17 | 257 | 0.0 | 3.2 | 0.00 | 0.15 | 0.15 | 60 | 1017.1 |
| 20260905181328 | 17 | 257 | 1.6 | 6.4 | 0.00 | 0.15 | 0.15 | 59 | 1017.5 |
| 20260905180311 | 18 | 248 | 1.6 | 8.0 | 0.00 | 0.15 | 0.15 | 59 | 1017.3 |
| 20260905180057 | 17 | 248 | 0.0 | 8.0 | 0.00 | 0.15 | 0.15 | 59 | 1016.9 |
| 20260905175758 | 18 | 246 | 1.6 | 8.0 | 0.00 | 0.15 | 0.15 | 59 | 1017.3 |
| 20260905175241 | 18 | 252 | 0.0 | 3.2 | 0.00 | 0.15 | 0.15 | 58 | 1017.2 |
| 20260905174727 | 18 | 252 | 1.6 | 4.8 | 0.00 | 0.15 | 0.15 | 58 | 1017.1 |
| 20260905174559 | 18 | 252 | 0.0 | 4.8 | 0.00 | 0.15 | 0.15 | 57 | 1016.6 |
| 20260905174213 | 18 | 254 | 0.0 | 4.8 | 0.00 | 0.15 | 0.15 | 57 | 1017.0 |
| 20260905173702 | 18 | 259 | 1.6 | 3.2 | 0.00 | 0.15 | 0.15 | 56 | 1017.0 |
| 20260905173148 | 19 | 259 | 1.6 | 6.4 | 0.00 | 0.15 | 0.15 | 56 | 1017.0 |
| 20260905173019 | 18 | 259 | 0.0 | 6.4 | 0.00 | 0.15 | 0.15 | 56 | 1016.5 |
| 20260905172634 | 19 | 250 | 1.6 | 6.4 | 0.00 | 0.15 | 0.15 | 56 | 1016.9 |
| 20260905172125 | 19 | 257 | 1.6 | 6.4 | 0.00 | 0.15 | 0.15 | 55 | 1017.0 |
| 20260905171552 | 19 | 256 | 1.6 | 8.0 | 0.00 | 0.15 | 0.15 | 55 | 1016.4 |
| 20260905171054 | 19 | 284 | 1.6 | 8.0 | 0.00 | 0.15 | 0.15 | 55 | 1016.9 |
| 20260905170539 | 19 | 277 | 1.6 | 4.8 | 0.00 | 0.15 | 0.15 | 55 | 1016.8 |
| 20260905170105 | 19 | 66 | 1.6 | 8.0 | 0.00 | 0.15 | 0.15 | 54 | 1016.3 |
| 20260905170027 | 19 | 308 | 3.2 | 11.3 | 0.00 | 0.15 | 0.15 | 54 | 1016.7 |
| 20260905165511 | 20 | 252 | 1.6 | 11.3 | 0.00 | 0.15 | 0.15 | 54 | 1016.7 |
| 20260905164525 | 20 | 265 | 1.6 | 8.0 | 0.00 | 0.15 | 0.15 | 53 | 1016.1 |
| 20260905164448 | 20 | 256 | 1.6 | 11.3 | 0.00 | 0.15 | 0.15 | 53 | 1016.6 |
| 20260905163931 | 20 | 252 | 1.6 | 11.3 | 0.00 | 0.15 | 0.15 | 52 | 1016.5 |
| 20260905163411 | 20 | 282 | 3.2 | 12.9 | 0.00 | 0.15 | 0.15 | 52 | 1016.5 |
| 20260905163037 | 20 | 277 | 1.6 | 12.9 | 0.00 | 0.15 | 0.15 | 52 | 1016.0 |
| 20260905162856 | 20 | 303 | 3.2 | 12.9 | 0.00 | 0.15 | 0.15 | 51 | 1016.5 |
| 20260905162343 | 20 | 259 | 3.2 | 12.9 | 0.00 | 0.15 | 0.15 | 51 | 1016.4 |
| 20260905161826 | 20 | 293 | 3.2 | 12.9 | 0.00 | 0.15 | 0.15 | 50 | 1016.3 |
| 20260905161559 | 20 | 271 | 3.2 | 12.9 | 0.00 | 0.15 | 0.15 | 50 | 1015.7 |
| 20260905161314 | 21 | 317 | 1.6 | 9.7 | 0.00 | 0.15 | 0.15 | 51 | 1016.2 |
| 20260905160758 | 21 | 254 | 3.2 | 8.0 | 0.00 | 0.15 | 0.15 | 51 | 1016.1 |
| 20260905160259 | 21 | 338 | 4.8 | 14.5 | 0.00 | 0.15 | 0.15 | 51 | 1016.0 |
| 20260905160021 | 21 | 313 | 3.2 | 14.5 | 0.00 | 0.15 | 0.15 | 50 | 1015.5 |
| 20260905155732 | 21 | 315 | 4.8 | 17.7 | 0.00 | 0.15 | 0.15 | 51 | 1016.0 |
| 20260905155217 | 21 | 304 | 4.8 | 17.7 | 0.00 | 0.15 | 0.15 | 51 | 1015.9 |
| 20260905154654 | 21 | 319 | 4.8 | 17.7 | 0.00 | 0.15 | 0.15 | 52 | 1015.8 |
| 20260905154525 | 21 | 246 | 1.6 | 16.1 | 0.00 | 0.15 | 0.15 | 52 | 1015.3 |
| 20260905154157 | 21 | 257 | 3.2 | 16.1 | 0.00 | 0.15 | 0.15 | 52 | 1015.8 |
| 20260905153629 | 21 | 279 | 3.2 | 16.1 | 0.00 | 0.15 | 0.15 | 53 | 1015.7 |
| 20260905153108 | 21 | 240 | 3.2 | 16.1 | 0.00 | 0.15 | 0.15 | 51 | 1015.7 |
| 20260905153043 | 21 | 244 | 4.8 | 16.1 | 0.00 | 0.15 | 0.15 | 53 | 1015.1 |
| 20260905152042 | 21 | 297 | 3.2 | 11.3 | 0.00 | 0.15 | 0.15 | 53 | 1015.6 |
| 20260905151505 | 21 | 276 | 1.6 | 12.9 | 0.00 | 0.15 | 0.15 | 54 | 1015.0 |
| 20260905151021 | 21 | 292 | 3.2 | 12.9 | 0.00 | 0.15 | 0.15 | 53 | 1015.6 |
| 20260905150509 | 21 | 249 | 4.8 | 16.1 | 0.00 | 0.15 | 0.15 | 52 | 1015.5 |
| 20260905150035 | 22 | 315 | 1.6 | 17.7 | 0.00 | 0.15 | 0.15 | 51 | 1015.0 |
| 20260905145954 | 22 | 315 | 6.4 | 19.3 | 0.00 | 0.15 | 0.15 | 50 | 1015.5 |
| 20260905145454 | 22 | 299 | 4.8 | 20.9 | 0.00 | 0.15 | 0.15 | 50 | 1015.5 |
| 20260905145006 | 22 | 298 | 4.8 | 20.9 | 0.00 | 0.15 | 0.15 | 53 | 1015.4 |
| 20260905144527 | 21 | 320 | 6.4 | 20.9 | 0.00 | 0.15 | 0.15 | 51 | 1014.7 |
| 20260905144438 | 22 | 294 | 4.8 | 19.3 | 0.00 | 0.15 | 0.15 | 51 | 1015.4 |
| 20260905143931 | 22 | 305 | 4.8 | 17.7 | 0.00 | 0.15 | 0.15 | 49 | 1015.3 |
| 20260905143429 | 23 | 327 | 4.8 | 14.5 | 0.00 | 0.15 | 0.15 | 48 | 1015.3 |
| 20260905143202 | 23 | 294 | 4.8 | 12.9 | 0.00 | 0.15 | 0.15 | 48 | 1014.8 |
| 20260905142920 | 23 | 304 | 6.4 | 19.3 | 0.00 | 0.15 | 0.15 | 48 | 1015.4 |
| 20260905142418 | 23 | 335 | 4.8 | 19.3 | 0.00 | 0.15 | 0.15 | 49 | 1015.3 |
| 20260905141918 | 23 | 300 | 3.2 | 17.7 | 0.00 | 0.15 | 0.15 | 49 | 1015.3 |
| 20260905141550 | 23 | 319 | 1.6 | 9.7 | 0.00 | 0.15 | 0.15 | 51 | 1014.8 |
| 20260905141416 | 23 | 325 | 4.8 | 17.7 | 0.00 | 0.15 | 0.15 | 50 | 1015.3 |
| 20260905140914 | 23 | 262 | 4.8 | 19.3 | 0.00 | 0.15 | 0.15 | 52 | 1015.3 |
| 20260905140403 | 22 | 355 | 4.8 | 19.3 | 0.00 | 0.15 | 0.15 | 51 | 1015.4 |
| 20260905140041 | 22 | 315 | 4.8 | 16.1 | 0.00 | 0.15 | 0.15 | 54 | 1014.8 |
| 20260905135858 | 22 | 309 | 4.8 | 14.5 | 0.00 | 0.15 | 0.15 | 53 | 1015.3 |
| 20260905135347 | 22 | 315 | 4.8 | 14.5 | 0.00 | 0.15 | 0.15 | 54 | 1015.4 |
| 20260905134842 | 23 | 302 | 4.8 | 17.7 | 0.00 | 0.15 | 0.15 | 52 | 1015.4 |
| 20260905134515 | 22 | 310 | 3.2 | 16.1 | 0.00 | 0.15 | 0.15 | 51 | 1014.9 |
| 20260905134336 | 23 | 277 | 6.4 | 17.7 | 0.00 | 0.15 | 0.15 | 51 | 1015.5 |
| 20260905133324 | 22 | 252 | 4.8 | 22.5 | 0.00 | 0.15 | 0.15 | 55 | 1015.5 |
| 20260905133004 | 21 | 348 | 6.4 | 22.5 | 0.00 | 0.15 | 0.15 | 53 | 1015.0 |
| 20260905132821 | 21 | 315 | 3.2 | 12.9 | 0.00 | 0.15 | 0.15 | 53 | 1015.5 |
| 20260905132311 | 22 | 202 | 3.2 | 12.9 | 0.00 | 0.15 | 0.15 | 55 | 1015.7 |
| 20260905131539 | 21 | 295 | 3.2 | 17.7 | 0.00 | 0.15 | 0.15 | 53 | 1015.1 |
| 20260905131301 | 22 | 17 | 4.8 | 17.7 | 0.00 | 0.15 | 0.15 | 53 | 1015.7 |
| 20260905130752 | 21 | 308 | 4.8 | 19.3 | 0.00 | 0.15 | 0.15 | 53 | 1015.6 |
| 20260905130240 | 22 | 309 | 6.4 | 19.3 | 0.00 | 0.15 | 0.15 | 51 | 1015.6 |
| 20260905130009 | 21 | 259 | 1.6 | 19.3 | 0.00 | 0.15 | 0.15 | 52 | 1014.9 |
| 20260905125728 | 22 | 309 | 4.8 | 19.3 | 0.00 | 0.15 | 0.15 | 52 | 1015.6 |
| 20260905125220 | 21 | 309 | 3.2 | 16.1 | 0.00 | 0.15 | 0.15 | 53 | 1015.7 |
| 20260905124707 | 21 | 249 | 4.8 | 19.3 | 0.00 | 0.15 | 0.15 | 52 | 1015.7 |
| 20260905124541 | 21 | 252 | 4.8 | 19.3 | 0.00 | 0.15 | 0.15 | 51 | 1015.1 |
| 20260905123131 | 22 | 239 | 6.4 | 20.9 | 0.00 | 0.15 | 0.15 | 52 | 1015.7 |
| 20260905123002 | 21 | 246 | 6.4 | 19.3 | 0.00 | 0.15 | 0.15 | 53 | 1015.1 |
| 20260905122618 | 22 | 285 | 4.8 | 17.7 | 0.00 | 0.15 | 0.15 | 52 | 1015.8 |
| 20260905122118 | 22 | 300 | 4.8 | 16.1 | 0.00 | 0.15 | 0.15 | 55 | 1015.8 |
| 20260905121606 | 22 | 296 | 4.8 | 16.1 | 0.00 | 0.15 | 0.15 | 51 | 1015.7 |
| 20260905121544 | 22 | 296 | 3.2 | 16.1 | 0.00 | 0.15 | 0.15 | 51 | 1015.1 |
| 20260905121054 | 22 | 319 | 6.4 | 24.1 | 0.00 | 0.15 | 0.15 | 53 | 1015.7 |
| 20260905120016 | 22 | 223 | 3.2 | 24.1 | 0.00 | 0.15 | 0.15 | 55 | 1015.1 |
| 20260905115512 | 22 | 350 | 6.4 | 24.1 | 0.00 | 0.15 | 0.15 | 53 | 1015.7 |
| 20260905115005 | 22 | 298 | 4.8 | 19.3 | 0.00 | 0.15 | 0.15 | 53 | 1015.8 |
| 20260905114530 | 22 | 261 | 1.6 | 19.3 | 0.00 | 0.15 | 0.15 | 57 | 1015.2 |
| 20260905114453 | 22 | 259 | 4.8 | 19.3 | 0.00 | 0.15 | 0.15 | 57 | 1015.8 |
| 20260905113427 | 22 | 308 | 4.8 | 16.1 | 0.00 | 0.15 | 0.15 | 57 | 1015.9 |
| 20260905113057 | 22 | 360 | 6.4 | 16.1 | 0.00 | 0.15 | 0.15 | 56 | 1015.3 |
| 20260905112911 | 22 | 320 | 6.4 | 19.3 | 0.00 | 0.15 | 0.15 | 55 | 1015.8 |
| 20260905112356 | 22 | 292 | 6.4 | 19.3 | 0.00 | 0.15 | 0.15 | 56 | 1015.9 |
| 20260905111842 | 22 | 70 | 6.4 | 24.1 | 0.00 | 0.15 | 0.15 | 59 | 1015.9 |
| 20260905111510 | 21 | 317 | 3.2 | 24.1 | 0.00 | 0.15 | 0.15 | 57 | 1015.3 |
| 20260905111330 | 21 | 312 | 8.0 | 24.1 | 0.00 | 0.15 | 0.15 | 57 | 1015.9 |
| 20260905110816 | 21 | 273 | 6.4 | 20.9 | 0.00 | 0.15 | 0.15 | 59 | 1016.0 |
| 20260905110317 | 21 | 331 | 6.4 | 20.9 | 0.00 | 0.15 | 0.15 | 57 | 1015.9 |
| 20260905110032 | 21 | 292 | 8.0 | 20.9 | 0.00 | 0.15 | 0.15 | 58 | 1015.3 |
| 20260905105231 | 21 | 314 | 4.8 | 20.9 | 0.00 | 0.15 | 0.15 | 61 | 1015.9 |
| 20260905104714 | 21 | 325 | 4.8 | 20.9 | 0.00 | 0.15 | 0.15 | 60 | 1015.9 |
| 20260905104546 | 21 | 254 | 3.2 | 14.5 | 0.00 | 0.15 | 0.15 | 61 | 1015.3 |
| 20260905104200 | 20 | 217 | 6.4 | 33.8 | 0.00 | 0.15 | 0.15 | 61 | 1015.9 |
| 20260905103133 | 21 | 257 | 6.4 | 27.4 | 0.00 | 0.15 | 0.15 | 58 | 1015.9 |
| 20260905103016 | 21 | 321 | 9.7 | 22.5 | 0.00 | 0.15 | 0.15 | 60 | 1015.3 |
| 20260905102620 | 21 | 323 | 6.4 | 24.1 | 0.00 | 0.15 | 0.15 | 61 | 1015.9 |
| 20260905102103 | 20 | 340 | 6.4 | 24.1 | 0.00 | 0.15 | 0.15 | 63 | 1016.0 |
| 20260905101524 | 20 | 52 | 6.4 | 16.1 | 0.00 | 0.15 | 0.15 | 66 | 1015.3 |
| 20260905101034 | 20 | 272 | 3.2 | 12.9 | 0.00 | 0.15 | 0.15 | 71 | 1016.0 |
| 20260905100519 | 19 | 309 | 3.2 | 12.9 | 0.00 | 0.15 | 0.15 | 72 | 1016.0 |
| 20260905100042 | 18 | 263 | 3.2 | 19.3 | 0.00 | 0.15 | 0.15 | 73 | 1015.4 |
| 20260905100005 | 19 | 294 | 4.8 | 19.3 | 0.00 | 0.15 | 0.15 | 74 | 1015.9 |
| 20260905095451 | 18 | 254 | 3.2 | 19.3 | 0.00 | 0.15 | 0.15 | 73 | 1016.0 |
| 20260905094939 | 18 | 355 | 3.2 | 12.9 | 0.00 | 0.15 | 0.15 | 76 | 1016.1 |
| 20260905094511 | 18 | 288 | 1.6 | 12.9 | 0.00 | 0.15 | 0.15 | 76 | 1015.4 |
| 20260905094437 | 18 | 276 | 3.2 | 12.9 | 0.00 | 0.15 | 0.15 | 77 | 1016.0 |
| 20260905093407 | 19 | 336 | 4.8 | 12.9 | 0.00 | 0.15 | 0.15 | 77 | 1015.9 |
| 20260905093039 | 18 | 253 | 3.2 | 16.1 | 0.00 | 0.15 | 0.15 | 76 | 1015.3 |
| 20260905092852 | 19 | 242 | 6.4 | 22.5 | 0.00 | 0.15 | 0.15 | 76 | 1015.8 |
| 20260905092341 | 19 | 248 | 8.0 | 25.7 | 0.00 | 0.15 | 0.15 | 75 | 1015.9 |
| 20260905091827 | 19 | 343 | 9.7 | 25.7 | 0.00 | 0.15 | 0.15 | 76 | 1015.9 |
| 20260905091556 | 18 | 241 | 9.7 | 25.7 | 0.00 | 0.15 | 0.15 | 76 | 1015.3 |
| 20260905091310 | 19 | 247 | 11.3 | 20.9 | 0.00 | 0.15 | 0.15 | 77 | 1015.9 |
| 20260905090754 | 18 | 254 | 11.3 | 24.1 | 0.00 | 0.15 | 0.15 | 78 | 1016.0 |
| 20260905090241 | 18 | 235 | 9.7 | 24.1 | 0.00 | 0.15 | 0.15 | 79 | 1016.1 |
| 20260905090008 | 18 | 215 | 9.7 | 24.1 | 0.00 | 0.15 | 0.15 | 81 | 1015.5 |
| 20260905085724 | 18 | 227 | 8.0 | 17.7 | 0.00 | 0.15 | 0.15 | 82 | 1016.2 |
| 20260905084532 | 17 | 236 | 8.0 | 20.9 | 0.00 | 0.15 | 0.15 | 84 | 1015.5 |
| 20260905084143 | 17 | 201 | 8.0 | 20.9 | 0.00 | 0.15 | 0.15 | 84 | 1016.0 |
| 20260905083626 | 17 | 238 | 8.0 | 16.1 | 0.00 | 0.15 | 0.15 | 87 | 1015.9 |
| 20260905083112 | 17 | 240 | 8.0 | 16.1 | 0.00 | 0.15 | 0.15 | 86 | 1015.9 |
| 20260905083046 | 17 | 244 | 9.7 | 16.1 | 0.00 | 0.15 | 0.15 | 86 | 1015.3 |
| 20260905082556 | 17 | 223 | 6.4 | 17.7 | 0.00 | 0.15 | 0.15 | 87 | 1015.9 |
| 20260905082043 | 16 | 226 | 6.4 | 17.7 | 0.00 | 0.15 | 0.15 | 86 | 1015.8 |
| 20260905081528 | 16 | 251 | 4.8 | 12.9 | 0.00 | 0.15 | 0.15 | 90 | 1015.7 |
| 20260905081505 | 16 | 251 | 6.4 | 11.3 | 0.00 | 0.15 | 0.15 | 90 | 1015.2 |
| 20260905081014 | 16 | 224 | 3.2 | 8.0 | 0.00 | 0.15 | 0.15 | 91 | 1015.7 |
| 20260905080458 | 16 | 231 | 3.2 | 6.4 | 0.00 | 0.15 | 0.15 | 92 | 1015.7 |
| 20260905080135 | 15 | 232 | 1.6 | 6.4 | 0.00 | 0.15 | 0.15 | 92 | 1015.2 |
| 20260905075954 | 16 | 233 | 1.6 | 6.4 | 0.00 | 0.15 | 0.15 | 93 | 1015.8 |
| 20260905075438 | 15 | 233 | 1.6 | 8.0 | 0.00 | 0.15 | 0.15 | 93 | 1016.0 |
| 20260905074927 | 15 | 233 | 3.2 | 8.0 | 0.00 | 0.15 | 0.15 | 93 | 1015.9 |
| 20260905074700 | 15 | 233 | 3.2 | 8.0 | 0.00 | 0.15 | 0.15 | 93 | 1015.3 |
| 20260905074417 | 15 | 241 | 3.2 | 6.4 | 0.00 | 0.15 | 0.15 | 93 | 1016.0 |
| 20260905073858 | 15 | 242 | 1.6 | 6.4 | 0.00 | 0.15 | 0.15 | 94 | 1016.0 |
| 20260905073346 | 15 | 242 | 1.6 | 8.0 | 0.00 | 0.15 | 0.15 | 94 | 1016.0 |
| 20260905073018 | 15 | 242 | 1.6 | 8.0 | 0.00 | 0.15 | 0.15 | 94 | 1015.3 |
| 20260905072837 | 15 | 243 | 1.6 | 8.0 | 0.00 | 0.15 | 0.15 | 94 | 1015.8 |
| 20260905072327 | 15 | 242 | 0.0 | 4.8 | 0.00 | 0.15 | 0.15 | 94 | 1015.7 |
| 20260905071645 | 15 | 242 | 0.0 | 4.8 | 0.00 | 0.15 | 0.15 | 94 | 1014.9 |
| 20260905071318 | 15 | 242 | 1.6 | 6.4 | 0.00 | 0.15 | 0.15 | 94 | 1015.6 |
| 20260905070817 | 15 | 242 | 1.6 | 6.4 | 0.00 | 0.15 | 0.15 | 94 | 1015.6 |
| 20260905070305 | 15 | 233 | 1.6 | 6.4 | 0.00 | 0.15 | 0.15 | 94 | 1015.6 |
| 20260905070046 | 15 | 234 | 0.0 | 4.8 | 0.00 | 0.15 | 0.15 | 95 | 1014.9 |
| 20260905065746 | 15 | 234 | 1.6 | 6.4 | 0.00 | 0.15 | 0.15 | 95 | 1015.7 |
| 20260905065245 | 15 | 234 | 3.2 | 6.4 | 0.00 | 0.15 | 0.15 | 95 | 1015.6 |
| 20260905064742 | 15 | 223 | 3.2 | 6.4 | 0.00 | 0.15 | 0.15 | 95 | 1015.5 |
| 20260905064536 | 15 | 233 | 3.2 | 6.4 | 0.00 | 0.15 | 0.15 | 95 | 1014.7 |
| 20260905064241 | 15 | 233 | 1.6 | 6.4 | 0.00 | 0.15 | 0.15 | 95 | 1015.3 |
| 20260905063738 | 15 | 238 | 0.0 | 3.2 | 0.03 | 0.15 | 0.15 | 95 | 1015.3 |
| 20260905063232 | 15 | 238 | 0.0 | 3.2 | 0.05 | 0.15 | 0.15 | 95 | 1015.0 |
| 20260905062721 | 15 | 238 | 0.0 | 1.6 | 0.05 | 0.15 | 0.15 | 95 | 1015.1 |
| 20260905062227 | 15 | 238 | 0.0 | 4.8 | 0.08 | 0.15 | 0.15 | 95 | 1015.0 |
| 20260905061702 | 15 | 238 | 1.6 | 4.8 | 0.10 | 0.15 | 0.15 | 94 | 1015.0 |
| 20260905061538 | 15 | 238 | 0.0 | 4.8 | 0.10 | 0.15 | 0.15 | 94 | 1014.4 |
| 20260905061152 | 15 | 238 | 1.6 | 4.8 | 0.10 | 0.15 | 0.15 | 94 | 1014.9 |
| 20260905060643 | 15 | 238 | 1.6 | 4.8 | 0.13 | 0.15 | 0.15 | 94 | 1014.8 |
| 20260905060010 | 15 | 238 | 0.0 | 1.6 | 0.13 | 0.15 | 0.15 | 94 | 1014.2 |
| 20260905055628 | 15 | 238 | 0.0 | 4.8 | 0.15 | 0.15 | 0.15 | 93 | 1015.1 |
| 20260905054601 | 15 | 238 | 0.0 | 4.8 | 0.15 | 0.15 | 0.15 | 93 | 1014.3 |
| 20260905054115 | 15 | 235 | 1.6 | 4.8 | 0.15 | 0.15 | 0.15 | 93 | 1014.6 |
| 20260905053113 | 15 | 237 | 1.6 | 4.8 | 0.13 | 0.13 | 0.13 | 92 | 1014.4 |
| 20260905053101 | 15 | 237 | 1.6 | 4.8 | 0.13 | 0.13 | 0.13 | 92 | 1013.7 |
| 20260905052628 | 16 | 237 | 1.6 | 6.4 | 0.10 | 0.10 | 0.10 | 92 | 1014.3 |
| 20260905052113 | 16 | 237 | 1.6 | 6.4 | 0.08 | 0.08 | 0.08 | 91 | 1014.4 |
| 20260905051604 | 16 | 325 | 1.6 | 6.4 | 0.05 | 0.05 | 0.05 | 91 | 1014.5 |
| 20260905051544 | 15 | 325 | 0.0 | 6.4 | 0.05 | 0.05 | 0.05 | 91 | 1013.8 |
| 20260905051052 | 16 | 268 | 1.6 | 4.8 | 0.05 | 0.05 | 0.05 | 91 | 1014.7 |
| 20260905050540 | 16 | 271 | 0.0 | 4.8 | 0.05 | 0.05 | 0.05 | 90 | 1014.5 |
| 20260905050027 | 16 | 281 | 1.6 | 6.4 | 0.03 | 0.03 | 0.03 | 90 | 1014.6 |
| 20260905050001 | 16 | 281 | 0.0 | 6.4 | 0.05 | 0.05 | 0.05 | 90 | 1013.9 |
| 20260905045516 | 16 | 281 | 1.6 | 6.4 | 0.03 | 0.03 | 0.03 | 90 | 1014.4 |
| 20260905045003 | 16 | 246 | 1.6 | 6.4 | 0.00 | 0.00 | 0.00 | 89 | 1014.3 |
| 20260905044525 | 16 | 257 | 0.0 | 4.8 | 0.00 | 0.00 | 0.00 | 89 | 1013.5 |
| 20260905043927 | 16 | 257 | 1.6 | 3.2 | 0.00 | 0.00 | 0.00 | 89 | 1013.9 |
| 20260905043041 | 16 | 256 | 1.6 | 4.8 | 0.00 | 0.00 | 0.00 | 89 | 1013.1 |
| 20260905042852 | 16 | 256 | 1.6 | 4.8 | 0.00 | 0.00 | 0.00 | 89 | 1013.9 |
| 20260905041507 | 16 | 244 | 0.0 | 0.0 | 0.00 | 0.00 | 0.00 | 88 | 1012.9 |
| 20260905041328 | 16 | 244 | 0.0 | 4.8 | 0.00 | 0.00 | 0.00 | 88 | 1013.5 |
| 20260905040811 | 16 | 244 | 0.0 | 4.8 | 0.00 | 0.00 | 0.00 | 87 | 1013.7 |
| 20260905040258 | 16 | 244 | 0.0 | 6.4 | 0.00 | 0.00 | 0.00 | 87 | 1013.5 |
| 20260905040029 | 16 | 244 | 0.0 | 6.4 | 0.00 | 0.00 | 0.00 | 87 | 1012.9 |
| 20260905035748 | 17 | 244 | 3.2 | 8.0 | 0.00 | 0.00 | 0.00 | 86 | 1013.5 |
| 20260905035238 | 17 | 246 | 3.2 | 8.0 | 0.00 | 0.00 | 0.00 | 86 | 1013.6 |
| 20260905034604 | 16 | 248 | 3.2 | 6.4 | 0.00 | 0.00 | 0.00 | 87 | 1012.8 |
| 20260905034211 | 17 | 268 | 0.0 | 3.2 | 0.00 | 0.00 | 0.00 | 86 | 1013.6 |
| 20260905033700 | 17 | 268 | 0.0 | 3.2 | 0.00 | 0.00 | 0.00 | 86 | 1013.1 |
| 20260905033021 | 16 | 268 | 0.0 | 4.8 | 0.00 | 0.00 | 0.00 | 86 | 1012.6 |
| 20260905032626 | 17 | 268 | 3.2 | 6.4 | 0.00 | 0.00 | 0.00 | 86 | 1013.2 |
| 20260905032114 | 17 | 242 | 1.6 | 4.8 | 0.00 | 0.00 | 0.00 | 85 | 1013.2 |
| 20260905031600 | 17 | 242 | 0.0 | 3.2 | 0.00 | 0.00 | 0.00 | 85 | 1012.8 |
| 20260905031536 | 17 | 242 | 1.6 | 3.2 | 0.00 | 0.00 | 0.00 | 85 | 1012.2 |
| 20260905031047 | 17 | 242 | 1.6 | 4.8 | 0.00 | 0.00 | 0.00 | 85 | 1012.8 |
| 20260905030529 | 17 | 242 | 1.6 | 6.4 | 0.00 | 0.00 | 0.00 | 85 | 1012.6 |
| 20260905030108 | 17 | 242 | 3.2 | 8.0 | 0.00 | 0.00 | 0.00 | 85 | 1011.9 |
| 20260905030017 | 17 | 231 | 3.2 | 11.3 | 0.00 | 0.00 | 0.00 | 85 | 1012.4 |
| 20260905024950 | 17 | 234 | 3.2 | 6.4 | 0.00 | 0.00 | 0.00 | 84 | 1012.4 |
| 20260905024513 | 17 | 232 | 1.6 | 4.8 | 0.00 | 0.00 | 0.00 | 84 | 1012.0 |
| 20260905024438 | 17 | 232 | 1.6 | 4.8 | 0.00 | 0.00 | 0.00 | 84 | 1012.6 |
| 20260905023939 | 17 | 245 | 1.6 | 8.0 | 0.00 | 0.00 | 0.00 | 84 | 1012.7 |
| 20260905023037 | 17 | 242 | 1.6 | 6.4 | 0.00 | 0.00 | 0.00 | 84 | 1012.1 |
| 20260905022857 | 17 | 243 | 1.6 | 12.9 | 0.00 | 0.00 | 0.00 | 83 | 1012.7 |
| 20260905022341 | 17 | 314 | 1.6 | 12.9 | 0.00 | 0.00 | 0.00 | 83 | 1012.7 |
| 20260905021826 | 17 | 313 | 3.2 | 16.1 | 0.00 | 0.00 | 0.00 | 83 | 1012.9 |
| 20260905021502 | 17 | 311 | 3.2 | 16.1 | 0.00 | 0.00 | 0.00 | 82 | 1012.2 |
| 20260905021327 | 17 | 308 | 3.2 | 16.1 | 0.00 | 0.00 | 0.00 | 82 | 1012.7 |
| 20260905020824 | 18 | 326 | 3.2 | 14.5 | 0.00 | 0.00 | 0.00 | 81 | 1012.9 |
| 20260905020258 | 18 | 252 | 3.2 | 14.5 | 0.00 | 0.00 | 0.00 | 80 | 1013.0 |
| 20260905020129 | 17 | 243 | 1.6 | 14.5 | 0.00 | 0.00 | 0.00 | 80 | 1012.3 |
| 20260905015735 | 18 | 307 | 3.2 | 11.3 | 0.00 | 0.00 | 0.00 | 79 | 1012.8 |
| 20260905015224 | 18 | 311 | 1.6 | 9.7 | 0.00 | 0.00 | 0.00 | 79 | 1012.8 |
| 20260905014710 | 18 | 317 | 1.6 | 9.7 | 0.00 | 0.00 | 0.00 | 78 | 1012.8 |
| 20260905014551 | 18 | 347 | 1.6 | 9.7 | 0.00 | 0.00 | 0.00 | 78 | 1012.3 |
| 20260905014157 | 18 | 325 | 3.2 | 16.1 | 0.00 | 0.00 | 0.00 | 77 | 1012.8 |
| 20260905013646 | 18 | 315 | 3.2 | 16.1 | 0.00 | 0.00 | 0.00 | 77 | 1012.5 |
| 20260905013129 | 18 | 227 | 1.6 | 8.0 | 0.00 | 0.00 | 0.00 | 76 | 1012.5 |
| 20260905013001 | 18 | 307 | 1.6 | 4.8 | 0.00 | 0.00 | 0.00 | 76 | 1011.9 |
| 20260905012615 | 18 | 313 | 1.6 | 6.4 | 0.00 | 0.00 | 0.00 | 75 | 1012.4 |
| 20260905011547 | 18 | 316 | 1.6 | 6.4 | 0.00 | 0.00 | 0.00 | 75 | 1012.4 |
| 20260905011521 | 18 | 316 | 1.6 | 6.4 | 0.00 | 0.00 | 0.00 | 75 | 1011.8 |
| 20260905010045 | 18 | 323 | 1.6 | 16.1 | 0.00 | 0.00 | 0.00 | 73 | 1011.6 |
| 20260905010003 | 18 | 328 | 4.8 | 16.1 | 0.00 | 0.00 | 0.00 | 73 | 1012.3 |
| 20260905005447 | 19 | 311 | 3.2 | 16.1 | 0.00 | 0.00 | 0.00 | 73 | 1012.3 |
| 20260905004934 | 19 | 312 | 4.8 | 14.5 | 0.00 | 0.00 | 0.00 | 72 | 1012.2 |
| 20260905004607 | 18 | 330 | 3.2 | 12.9 | 0.00 | 0.00 | 0.00 | 72 | 1011.5 |
| 20260905004420 | 19 | 237 | 3.2 | 12.9 | 0.00 | 0.00 | 0.00 | 72 | 1012.1 |
| 20260905003908 | 19 | 319 | 3.2 | 14.5 | 0.00 | 0.00 | 0.00 | 72 | 1012.4 |
| 20260905003353 | 19 | 324 | 3.2 | 14.5 | 0.00 | 0.00 | 0.00 | 72 | 1012.0 |
| 20260905003028 | 18 | 307 | 3.2 | 17.7 | 0.00 | 0.00 | 0.00 | 72 | 1011.2 |
| 20260905002841 | 19 | 306 | 4.8 | 19.3 | 0.00 | 0.00 | 0.00 | 72 | 1012.1 |
| 20260905002320 | 19 | 298 | 6.4 | 19.3 | 0.00 | 0.00 | 0.00 | 71 | 1011.9 |
| 20260905001805 | 19 | 319 | 4.8 | 14.5 | 0.00 | 0.00 | 0.00 | 71 | 1011.8 |
| 20260905001533 | 18 | 322 | 1.6 | 14.5 | 0.00 | 0.00 | 0.00 | 71 | 1011.1 |
| 20260905001250 | 19 | 26 | 4.8 | 14.5 | 0.00 | 0.00 | 0.00 | 71 | 1011.9 |
| 20260905000735 | 19 | 313 | 4.8 | 19.3 | 0.00 | 0.00 | 0.00 | 71 | 1011.6 |
| 20260905000220 | 19 | 324 | 4.8 | 19.3 | 0.00 | 0.00 | 0.00 | 71 | 1011.7 |
| 20260905000051 | 18 | 313 | 4.8 | 19.3 | 0.00 | 0.00 | 0.00 | 71 | 1011.1 |
| 20260904234633 | 19 | 313 | 4.8 | 16.1 | 0.00 | 0.00 | 0.00 | 70 | 1011.5 |
| 20260904234506 | 19 | 265 | 4.8 | 16.1 | 0.00 | 0.00 | 0.00 | 70 | 1010.8 |
| 20260904234124 | 19 | 309 | 6.4 | 17.7 | 0.00 | 0.00 | 0.00 | 70 | 1011.2 |
| 20260904233106 | 19 | 332 | 6.4 | 20.9 | 0.00 | 0.00 | 0.00 | 70 | 1011.3 |
| 20260904233041 | 19 | 332 | 6.4 | 20.9 | 0.00 | 0.00 | 0.00 | 70 | 1010.6 |
| 20260904232039 | 20 | 319 | 6.4 | 16.1 | 0.00 | 0.00 | 0.00 | 70 | 1011.3 |
| 20260904231531 | 20 | 315 | 9.7 | 24.1 | 0.00 | 0.00 | 0.00 | 69 | 1011.2 |
| 20260904231512 | 19 | 325 | 8.0 | 24.1 | 0.00 | 0.00 | 0.00 | 69 | 1010.5 |
| 20260904230528 | 20 | 304 | 6.4 | 17.7 | 0.00 | 0.00 | 0.00 | 69 | 1011.2 |
| 20260904230059 | 20 | 295 | 6.4 | 14.5 | 0.00 | 0.00 | 0.00 | 70 | 1010.5 |
| 20260904230019 | 20 | 322 | 4.8 | 14.5 | 0.00 | 0.00 | 0.00 | 70 | 1011.1 |
| 20260904225515 | 20 | 325 | 6.4 | 20.9 | 0.00 | 0.00 | 0.00 | 69 | 1011.1 |
| 20260904225008 | 20 | 322 | 8.0 | 20.9 | 0.00 | 0.00 | 0.00 | 68 | 1011.2 |
| 20260904224536 | 20 | 183 | 6.4 | 20.9 | 0.00 | 0.00 | 0.00 | 67 | 1010.5 |
| 20260904223956 | 20 | 323 | 6.4 | 22.5 | 0.00 | 0.00 | 0.00 | 69 | 1010.9 |
| 20260904223443 | 20 | 335 | 4.8 | 16.1 | 0.00 | 0.00 | 0.00 | 70 | 1010.9 |
| 20260904223021 | 20 | 323 | 3.2 | 14.5 | 0.00 | 0.00 | 0.00 | 70 | 1010.0 |
| 20260904222435 | 21 | 305 | 6.4 | 22.5 | 0.00 | 0.00 | 0.00 | 69 | 1010.6 |
| 20260904221936 | 21 | 330 | 6.4 | 25.7 | 0.00 | 0.00 | 0.00 | 68 | 1010.4 |
| 20260904221512 | 21 | 301 | 11.3 | 25.7 | 0.00 | 0.00 | 0.00 | 68 | 1009.7 |
| 20260904220920 | 22 | 295 | 6.4 | 19.3 | 0.00 | 0.00 | 0.00 | 66 | 1010.3 |
| 20260904220413 | 22 | 313 | 9.7 | 25.7 | 0.00 | 0.00 | 0.00 | 66 | 1010.2 |
| 20260904220106 | 22 | 309 | 11.3 | 25.7 | 0.00 | 0.00 | 0.00 | 65 | 1009.4 |
| 20260904215909 | 22 | 355 | 8.0 | 25.7 | 0.00 | 0.00 | 0.00 | 65 | 1010.1 |
| 20260904215355 | 22 | 291 | 4.8 | 22.5 | 0.00 | 0.00 | 0.00 | 66 | 1009.9 |
| 20260904214835 | 23 | 309 | 4.8 | 14.5 | 0.00 | 0.00 | 0.00 | 67 | 1009.8 |
| 20260904214515 | 23 | 305 | 3.2 | 14.5 | 0.00 | 0.00 | 0.00 | 67 | 1009.0 |
| 20260904214331 | 23 | 310 | 4.8 | 17.7 | 0.00 | 0.00 | 0.00 | 66 | 1009.6 |
| 20260904213827 | 23 | 315 | 4.8 | 17.7 | 0.00 | 0.00 | 0.00 | 65 | 1009.5 |
| 20260904213320 | 23 | 302 | 6.4 | 16.1 | 0.00 | 0.00 | 0.00 | 64 | 1009.3 |
| 20260904213155 | 23 | 210 | 6.4 | 16.1 | 0.00 | 0.00 | 0.00 | 63 | 1008.6 |
| 20260904212812 | 24 | 312 | 8.0 | 16.1 | 0.00 | 0.00 | 0.00 | 62 | 1008.7 |
| 20260904212306 | 24 | 207 | 9.7 | 22.5 | 0.00 | 0.00 | 0.00 | 61 | 1007.9 |
| 20260904211759 | 24 | 230 | 9.7 | 22.5 | 0.00 | 0.00 | 0.00 | 61 | 1007.9 |
| 20260904211536 | 24 | 240 | 9.7 | 20.9 | 0.00 | 0.00 | 0.00 | 61 | 1007.3 |
| 20260904211257 | 24 | 232 | 9.7 | 17.7 | 0.00 | 0.00 | 0.00 | 61 | 1007.8 |
| 20260904210745 | 24 | 159 | 9.7 | 17.7 | 0.00 | 0.00 | 0.00 | 61 | 1007.9 |
| 20260904210241 | 24 | 219 | 9.7 | 19.3 | 0.00 | 0.00 | 0.00 | 61 | 1008.1 |
| 20260904210117 | 23 | 260 | 6.4 | 19.3 | 0.00 | 0.00 | 0.00 | 61 | 1007.5 |
| 20260904205738 | 24 | 221 | 9.7 | 19.3 | 0.00 | 0.00 | 0.00 | 62 | 1008.2 |
| 20260904205230 | 23 | 235 | 6.4 | 16.1 | 0.00 | 0.00 | 0.00 | 63 | 1008.2 |
| 20260904204726 | 23 | 245 | 4.8 | 9.7 | 0.00 | 0.00 | 0.00 | 63 | 1008.2 |
| 20260904203715 | 23 | 220 | 3.2 | 9.7 | 0.00 | 0.00 | 0.00 | 63 | 1008.2 |
| 20260904203036 | 23 | 238 | 3.2 | 8.0 | 0.00 | 0.00 | 0.00 | 63 | 1007.6 |
| 20260904202649 | 23 | 188 | 3.2 | 11.3 | 0.00 | 0.00 | 0.00 | 63 | 1008.2 |
| 20260904202136 | 23 | 195 | 4.8 | 11.3 | 0.00 | 0.00 | 0.00 | 62 | 1008.2 |
| 20260904201628 | 23 | 226 | 4.8 | 12.9 | 0.00 | 0.00 | 0.00 | 62 | 1008.2 |
| 20260904201503 | 23 | 202 | 3.2 | 12.9 | 0.00 | 0.00 | 0.00 | 62 | 1007.6 |
| 20260904201116 | 24 | 234 | 6.4 | 12.9 | 0.00 | 0.00 | 0.00 | 62 | 1008.2 |
| 20260904200032 | 23 | 238 | 6.4 | 12.9 | 0.00 | 0.00 | 0.00 | 62 | 1007.7 |
| 20260904195543 | 24 | 198 | 6.4 | 12.9 | 0.00 | 0.00 | 0.00 | 62 | 1008.3 |
| 20260904195034 | 24 | 213 | 6.4 | 11.3 | 0.00 | 0.00 | 0.00 | 62 | 1008.3 |
| 20260904194703 | 23 | 219 | 4.8 | 11.3 | 0.00 | 0.00 | 0.00 | 62 | 1007.7 |
| 20260904194008 | 23 | 168 | 4.8 | 12.9 | 0.00 | 0.00 | 0.00 | 63 | 1008.4 |
| 20260904193506 | 23 | 205 | 4.8 | 11.3 | 0.00 | 0.00 | 0.00 | 64 | 1008.5 |
| 20260904193046 | 23 | 238 | 4.8 | 8.0 | 0.00 | 0.00 | 0.00 | 64 | 1008.0 |
| 20260904192455 | 23 | 222 | 4.8 | 14.5 | 0.00 | 0.00 | 0.00 | 64 | 1008.6 |
| 20260904191946 | 23 | 195 | 4.8 | 8.0 | 0.00 | 0.00 | 0.00 | 65 | 1008.6 |
| 20260904191511 | 23 | 199 | 3.2 | 8.0 | 0.00 | 0.00 | 0.00 | 65 | 1008.1 |
| 20260904190924 | 23 | 221 | 1.6 | 8.0 | 0.00 | 0.00 | 0.00 | 66 | 1008.7 |
| 20260904190409 | 23 | 217 | 3.2 | 8.0 | 0.00 | 0.00 | 0.00 | 67 | 1008.8 |
| 20260904190032 | 22 | 211 | 0.0 | 8.0 | 0.00 | 0.00 | 0.00 | 68 | 1008.3 |
| 20260904185342 | 22 | 247 | 3.2 | 6.4 | 0.00 | 0.00 | 0.00 | 71 | 1008.8 |
| 20260904184827 | 21 | 248 | 3.2 | 6.4 | 0.00 | 0.00 | 0.00 | 74 | 1008.9 |
| 20260904184610 | 21 | 237 | 1.6 | 6.4 | 0.00 | 0.00 | 0.00 | 76 | 1008.5 |
| 20260904183810 | 21 | 236 | 0.0 | 3.2 | 0.00 | 0.00 | 0.00 | 77 | 1009.3 |
| 20260904183253 | 21 | 236 | 0.0 | 3.2 | 0.00 | 0.00 | 0.00 | 76 | 1009.4 |
| 20260904183025 | 21 | 236 | 1.6 | 3.2 | 0.00 | 0.00 | 0.00 | 76 | 1008.8 |